Vorticity
12 10 7 6 5 3 6 10 13 14 7 5 4 5 7 6 5 3 4 6 4 2 5 4 4 4 5 5 3 4 3 2 9 3 10 0 -2 -8 6 4 22 -4 3 15 6
7 5 5 5 4 6 9 12 14 12 4 4 5 6 6 7 7 7 5 5 4 5 5 6 6 5 5 5 6 8 8 6 5 2 5 6 6 8 12 9 9 6 15 -1 10
7 7 6 6 6 8 13 13 13 5 6 4 5 5 5 7 9 9 9 7 6 4 5 4 3 4 6 8 12 8 2 7 3 3 6 7 6 7 7 3 6 13 12 -4 7
7 7 8 7 7 12 12 12 5 6 6 6 5 4 5 7 5 10 10 10 9 7 6 5 8 8 7 6 5 5 6 8 1 7 5 5 4 4 5 5 9 9 23 3 4
9 8 7 7 12 14 11 7 8 9 7 6 4 5 7 7 -5 23 9 9 10 11 10 10 8 7 7 2 4 7 9 5 2 4 6 7 7 7 6 11 8 7 5 11 15
6 8 11 13 15 11 9 9 10 8 7 5 4 6 7 7 0 8 9 8 7 6 5 5 5 4 3 3 5 -2 7 7 6 8 15 17 11 9 14 16 18 14 4 7 7
10 12 13 14 10 8 8 9 9 8 7 5 5 6 5 12 8 5 4 4 3 3 3 3 3 2 3 5 10 2 4 11 35 19 19 -13 4 15 1 11 7 -1 5 7 10
14 14 12 10 9 9 10 9 8 8 6 5 5 5 4 4 4 4 4 3 3 3 4 4 4 4 7 10 13 15 21 21 9 -0 2 5 -2 3 20 7 3 3 10 9 -0
8 9 7 7 8 9 8 8 8 6 5 5 5 3 2 4 3 4 4 5 4 5 8 8 7 7 11 15 15 25 -14 -3 -0 -7 3 5 2 5 -8 9 9 12 21 9 12
5 4 4 5 6 6 6 6 5 5 5 5 5 2 0 9 10 10 7 8 6 5 4 3 8 10 23 8 -13 2 2 -0 5 14 9 5 7 15 14 8 11 8 11 21 18
10 8 7 7 8 6 6 5 7 9 8 -1 13 1 -1 5 5 4 2 2 5 8 16 7 8 19 1 -9 -3 1 13 11 7 7 12 8 -4 15 44 34 32 25 29 18 10
5 5 5 6 6 6 5 1 7 4 7 7 5 4 4 5 8 6 10 10 11 14 2 15 19 4 4 12 11 12 3 3 13 9 -3 12 27 12 7 6 19 8 11 7 5
5 5 6 6 6 7 7 6 8 10 3 5 7 11 12 13 12 13 17 16 14 16 10 5 -14 -1 11 12 5 10 12 17 -0 2 17 25 14 -24 31 24 5 10 7 6 4
6 7 8 8 7 7 6 6 7 9 16 10 11 12 12 13 11 12 11 6 10 4 7 25 8 8 2 11 7 8 9 -5 -1 22 -1 -23 2 1 32 6 10 10 8 7 10
5 5 5 6 12 5 7 6 6 11 15 3 14 10 10 8 2 8 3 4 0 -2 -5 7 -10 -3 4 11 -3 -4 19 9 1 4 10 17 11 40 19 8 20 12 7 8 8
9 8 7 6 4 6 8 9 12 4 12 7 7 7 10 6 5 5 9 11 20 23 18 18 15 19 -1 5 6 10 9 1 45 45 42 26 15 10 17 9 -4 3 5 9 12
11 10 9 8 10 10 11 14 2 3 14 9 -0 11 6 -4 8 15 10 7 15 24 -5 16 30 0 -1 11 14 11 -11 17 25 4 8 -29 38 16 4 13 -0 -3 4 7 -1
13 12 12 11 9 10 12 9 8 8 1 8 5 11 8 5 -1 10 17 8 -7 21 16 11 12 16 -4 6 -14 40 24 -9 15 7 -30 -20 32 7 6 -14 -23 -11 -11 -16 5
11 15 15 18 15 13 14 0 0 3 23 11 11 13 -4 13 8 15 -2 24 8 18 17 13 31 9 -4 -0 35 -21 5 0 6 19 47 7 -12 23 -13 -29 1 3 -4 11 9
13 8 7 10 10 14 1 6 9 17 4 9 7 8 6 -2 21 7 14 3 6 6 5 2 18 37 26 6 9 28 -2 16 8 12 13 12 3 -8 15 5 -8 -22 -4 -9 -21
13 3 10 14 18 3 6 -8 16 9 8 10 8 3 8 9 4 18 7 -2 31 -5 6 12 22 -13 -27 17 11 11 -3 4 7 -5 -9 7 33 -32 -39 4 13 25 22 12 9
10 11 21 7 4 5 12 13 8 11 11 9 12 14 9 6 19 14 -2 -3 -5 3 12 17 10 7 5 23 21 37 23 21 13 12 -18 -11 -14 -9 32 -48 11 15 6 17 0
10 5 13 5 2 12 12 10 8 9 9 8 10 9 10 10 16 8 8 0 20 3 -2 -8 10 15 20 16 4 -3 -3 6 2 -16 -0 1 -40 -73 -20 20 3 19 19 6 8
14 9 10 5 11 10 9 7 9 11 12 7 11 10 6 8 11 4 5 4 4 15 14 24 21 4 -20 -26 -17 1 13 10 6 6 3 -1 7 13 8 1 20 7 2 7 4
10 3 8 3 10 9 7 11 9 9 8 10 7 5 7 15 7 18 3 6 14 -4 14 20 5 16 11 4 5 7 10 12 10 9 7 1 3 13 12 -1 11 7 13 10 9
13 14 10 6 12 6 5 7 9 9 9 5 5 6 7 14 7 7 8 14 23 8 8 6 5 -8 6 36 24 10 4 14 21 22 21 10 7 9 22 21 23 13 9 7 15
9 9 7 10 10 8 4 7 5 13 10 6 5 6 12 2 11 10 13 13 9 7 7 15 10 -5 27 -3 -9 65 21 0 -13 11 21 2 -7 1 13 13 9 4 -6 -5 6
Height
3106 3113 3118 3123 3128 3133 3137 3141 3145 3149 3155 3160 3164 3168 3171 3173 3176 3177 3180 3183 3185 3187 3188 3190 3191 3191 3191 3192 3192 3192 3192 3191 3192 3192 3190 3189 3189 3189 3188 3186 3186 3187 3185 3185 3182
3110 3117 3122 3126 3131 3135 3138 3142 3146 3151 3156 3161 3165 3169 3171 3174 3175 3177 3180 3182 3184 3186 3188 3189 3190 3190 3190 3190 3190 3190 3189 3189 3190 3188 3186 3186 3185 3184 3184 3183 3183 3183 3184 3180 3179
3117 3121 3125 3129 3133 3137 3140 3143 3147 3153 3158 3163 3166 3169 3172 3174 3176 3178 3179 3181 3184 3185 3187 3187 3188 3189 3189 3188 3188 3187 3186 3187 3186 3184 3183 3182 3181 3180 3179 3178 3179 3178 3179 3180 3176
3122 3125 3128 3132 3135 3138 3141 3145 3150 3155 3160 3164 3167 3170 3173 3174 3178 3177 3179 3181 3183 3185 3186 3186 3187 3187 3187 3187 3186 3185 3185 3184 3183 3181 3180 3178 3176 3176 3175 3175 3176 3174 3173 3173 3171
3126 3129 3132 3135 3137 3140 3144 3148 3153 3157 3162 3165 3168 3171 3173 3175 3177 3178 3179 3181 3182 3183 3184 3185 3185 3185 3185 3185 3183 3181 3181 3180 3179 3177 3175 3173 3172 3170 3169 3171 3170 3169 3168 3168 3168
3130 3131 3134 3136 3139 3143 3147 3151 3155 3159 3163 3166 3169 3172 3174 3176 3177 3178 3179 3180 3181 3182 3183 3183 3183 3183 3182 3181 3180 3179 3177 3176 3174 3173 3171 3168 3167 3166 3167 3164 3163 3164 3164 3163 3164
3132 3134 3136 3139 3143 3146 3150 3154 3158 3162 3165 3167 3170 3172 3174 3176 3177 3178 3179 3180 3180 3181 3180 3181 3180 3180 3179 3179 3176 3175 3172 3171 3169 3167 3166 3164 3163 3163 3162 3160 3159 3160 3160 3160 3160
3135 3137 3140 3143 3146 3149 3153 3157 3160 3163 3166 3169 3171 3173 3174 3175 3176 3177 3177 3178 3178 3179 3179 3179 3178 3177 3176 3175 3173 3171 3170 3167 3168 3166 3164 3162 3155 3159 3159 3158 3157 3155 3155 3156 3157
3138 3140 3143 3146 3149 3152 3155 3159 3162 3165 3167 3169 3172 3172 3173 3174 3174 3175 3176 3176 3177 3177 3176 3176 3175 3174 3172 3171 3169 3169 3167 3167 3167 3167 3162 3160 3151 3152 3152 3152 3149 3148 3148 3150 3152
3140 3143 3145 3148 3151 3154 3157 3160 3163 3165 3167 3168 3170 3173 3172 3172 3172 3173 3174 3174 3174 3174 3173 3172 3171 3170 3170 3169 3169 3166 3165 3162 3161 3161 3160 3157 3150 3147 3147 3145 3142 3143 3144 3146 3149
3144 3146 3149 3151 3153 3156 3158 3161 3166 3168 3168 3168 3169 3169 3170 3171 3171 3171 3172 3172 3171 3171 3170 3167 3169 3168 3168 3168 3167 3165 3162 3158 3157 3158 3155 3151 3145 3141 3140 3138 3137 3140 3137 3135 3130
3147 3149 3151 3153 3155 3157 3159 3162 3164 3166 3167 3167 3167 3168 3169 3169 3169 3169 3170 3170 3168 3168 3167 3168 3166 3165 3165 3164 3163 3161 3158 3155 3152 3153 3148 3145 3140 3139 3136 3135 3130 3127 3127 3125 3122
3149 3151 3153 3155 3156 3159 3160 3162 3163 3164 3166 3166 3166 3166 3168 3168 3167 3166 3167 3165 3165 3165 3165 3165 3166 3162 3161 3160 3159 3158 3156 3152 3149 3144 3144 3140 3136 3139 3132 3124 3121 3121 3120 3120 3118
3151 3153 3154 3156 3159 3159 3161 3162 3163 3165 3166 3167 3166 3165 3166 3165 3165 3164 3164 3165 3164 3164 3163 3162 3160 3160 3158 3157 3157 3152 3152 3147 3145 3143 3140 3141 3134 3133 3130 3123 3121 3121 3120 3117 3114
3153 3154 3156 3157 3158 3160 3162 3162 3163 3165 3165 3168 3164 3164 3164 3165 3164 3164 3163 3163 3162 3162 3162 3162 3158 3155 3154 3154 3152 3149 3146 3144 3141 3138 3138 3133 3138 3127 3125 3120 3118 3118 3113 3110 3108
3153 3154 3155 3157 3158 3160 3160 3161 3163 3167 3164 3164 3163 3163 3164 3163 3162 3161 3161 3160 3159 3157 3156 3155 3155 3153 3150 3149 3148 3147 3143 3138 3133 3133 3136 3127 3130 3128 3124 3118 3115 3113 3111 3106 3102
3153 3154 3155 3156 3158 3159 3160 3162 3165 3164 3166 3165 3163 3163 3164 3163 3163 3161 3160 3157 3159 3157 3155 3154 3153 3149 3149 3147 3146 3145 3142 3135 3130 3131 3129 3123 3126 3126 3120 3116 3111 3108 3104 3100 3098
3154 3154 3155 3156 3157 3158 3160 3163 3163 3163 3161 3161 3162 3162 3163 3162 3161 3160 3160 3159 3155 3155 3154 3153 3151 3149 3146 3145 3144 3143 3143 3143 3138 3130 3127 3119 3121 3123 3114 3108 3106 3104 3101 3098 3093
3154 3154 3155 3155 3157 3158 3161 3161 3160 3159 3160 3160 3160 3161 3161 3160 3161 3159 3157 3156 3155 3154 3156 3152 3151 3146 3144 3142 3145 3142 3143 3143 3140 3137 3131 3119 3117 3116 3107 3102 3100 3097 3094 3090 3086
3156 3155 3155 3155 3156 3158 3160 3159 3158 3158 3158 3159 3161 3160 3162 3159 3160 3159 3158 3154 3153 3153 3152 3152 3145 3143 3142 3141 3143 3141 3142 3142 3141 3135 3124 3111 3109 3108 3098 3091 3088 3088 3088 3083 3078
3157 3156 3156 3156 3157 3158 3159 3157 3157 3157 3158 3159 3158 3158 3158 3157 3157 3156 3156 3153 3151 3151 3149 3147 3146 3144 3141 3140 3137 3138 3137 3139 3138 3137 3128 3119 3102 3101 3097 3094 3090 3088 3085 3085 3081
3158 3157 3157 3157 3158 3156 3156 3157 3157 3157 3157 3157 3156 3155 3155 3155 3153 3154 3155 3150 3150 3147 3146 3143 3141 3137 3134 3134 3132 3132 3131 3133 3132 3127 3124 3125 3087 3097 3097 3094 3092 3089 3085 3080 3072
3158 3157 3157 3157 3157 3156 3155 3156 3156 3156 3155 3155 3154 3154 3153 3153 3153 3151 3150 3148 3147 3146 3143 3141 3140 3135 3132 3132 3129 3130 3131 3131 3128 3125 3115 3118 3091 3093 3094 3089 3086 3081 3077 3070 3064
3159 3157 3157 3156 3155 3155 3154 3154 3154 3154 3154 3153 3153 3152 3151 3150 3150 3149 3147 3144 3142 3140 3138 3136 3135 3135 3135 3131 3129 3125 3124 3123 3122 3115 3108 3102 3091 3092 3088 3083 3079 3073 3068 3062 3057
3161 3159 3158 3157 3155 3154 3154 3153 3152 3153 3153 3152 3151 3150 3149 3148 3147 3147 3144 3143 3140 3136 3135 3133 3130 3130 3128 3124 3121 3117 3113 3111 3110 3108 3106 3091 3090 3085 3082 3077 3071 3066 3060 3053 3050
3161 3160 3158 3156 3155 3154 3153 3152 3151 3151 3152 3150 3149 3148 3146 3145 3144 3143 3141 3139 3137 3134 3132 3131 3126 3124 3118 3116 3115 3110 3105 3101 3100 3099 3094 3088 3080 3082 3074 3068 3064 3058 3053 3048 3045
3161 3159 3158 3157 3155 3153 3152 3151 3150 3149 3150 3149 3147 3146 3143 3142 3140 3138 3136 3134 3133 3131 3130 3128 3125 3122 3112 3112 3109 3101 3097 3096 3094 3094 3090 3080 3075 3070 3063 3058 3053 3049 3045 3041 3036